This demonstration page uses our WeatherBlox Daily Observations layout. Learn more.

Left ArrowRight Arrow

39.01783, -85.05884

Hourly Observations for October 7, 2018

Temp ( °F °C ) Dew Point ( °F °C ) Humidity (%) Winds ( mph kmh ) Pressure ( in mb ) Visibility ( mi km ) Precip ( " mm )
12:52 am 00:52 Clear 71 21.7 69 20.6 94 94 SSW 3 6 30.07 1018 9 14 N/A
1:52 am 01:52 Clear 71 21.7 69 20.6 94 94 SSW 6 9 30.08 1019 10 16 N/A
2:52 am 02:52 Clear 70 21.1 69 20.6 97 97 SSW 6 9 30.08 1019 9 14 N/A
3:52 am 03:52 Clear 67 19.4 67 19.4 100 100 S 7 11 30.08 1019 9 14 N/A
4:52 am 04:52 Clear 69 20.6 68 20 96 96 S 7 11 30.09 1019 7 11 N/A
5:52 am 05:52 Clear 69 20.6 68 20 96 96 SSW 7 11 30.11 1020 7 11 N/A
6:52 am 06:52 Clear 65 18.3 65 18.3 100 100 S 5 7 30.13 1020 7 11 N/A
7:52 am 07:52 Partly Cloudy 69 20.6 68 20 96 96 N N/A 30.14 1021 7 11 N/A
8:52 am 08:52 Partly Cloudy 71 21.7 70 21.1 96 96 N N/A 30.16 1021 7 11 N/A
9:52 am 09:52 Partly Cloudy 76 24.4 71 21.7 85 85 SSW 5 7 30.17 1022 7 11 N/A
10:52 am 10:52 Partly Cloudy 81 27.2 69 20.6 67 67 SW 5 7 30.17 1022 10 16 N/A
11:52 am 11:52 Mostly Sunny 82 27.8 69 20.6 65 65 SSW 3 6 30.18 1022 10 16 N/A
12:52 pm 12:52 Mostly Sunny 85 29.4 67 19.4 55 55 VRB 6 9 30.17 1022 10 16 N/A
1:52 pm 13:52 Partly Cloudy 86 30 67 19.4 53 53 S 7 11 30.15 1021 10 16 N/A
2:52 pm 14:52 Partly Cloudy 85 29.4 66 18.9 53 53 SW 7 11 30.13 1020 10 16 N/A
3:52 pm 15:52 Partly Cloudy 86 30 66 18.9 51 51 VRB 6 9 30.12 1020 10 16 N/A
4:52 pm 16:52 Partly Cloudy 87 30.6 67 19.4 51 51 WNW 3 6 30.11 1020 10 16 N/A
5:52 pm 17:52 Partly Cloudy 86 30 68 20 55 55 N N/A 30.11 1020 10 16 N/A
6:52 pm 18:52 Mostly Sunny 82 27.8 69 20.6 65 65 ESE 6 9 30.11 1020 10 16 N/A
7:52 pm 19:52 Clear 80 26.7 69 20.6 69 69 N N/A 30.12 1020 10 16 N/A
8:52 pm 20:52 Clear 79 26.1 69 20.6 72 72 ESE 3 6 30.13 1020 10 16 N/A
9:52 pm 21:52 Clear 77 25 69 20.6 77 77 ESE 5 7 30.14 1021 10 16 N/A
10:52 pm 22:52 Partly Cloudy 78 25.6 69 20.6 74 74 ENE 5 7 30.15 1021 10 16 N/A
11:52 pm 23:52 Mostly Clear 75 23.9 70 21.1 84 84 SSE 3 6 30.15 1021 10 16 N/A

Powered by AerisWeather